Location: Cutler
(25.6150°N, 80.3110°W)
Time: 00:08:31
(UTC-05:00)

Hubble Space Telescope - Pass Details

Date: 16 November 2017
Orbit: 537 x 541 km, 28.5° (Epoch: 18 November)

Event Time Altitude Azimuth Distance (km) Brightness Sun altitude
Exits shadow 04:47:18 36° 164° (SSE) 846 1.9 -25.3°
Maximum altitude 04:47:28 37° 158° (SSE) 843 1.9 -25.2°
Drops below altitude 10° 04:51:16 10° 90° (E) 1,780 4.5 -24.4°
Sets 04:53:39 0° 82° (E) 2,673 5.5 -23.9°
